User: anonymous   Login
Location: ???????
(55.4362°N, 38.1183°E)
Time: 16:52:55
(UTC+00:00)
Language:

Oscar 11 - Orbit

View from above orbital plane
View from above orbital plane
View from above satellite
View from above satellite

Ground track
Ground track

The orbit data is extracted from the following two-line orbital elements,

1 14781U 84021B   22272.91352364  .00001167  00000-0  14687-3 0  9998
2 14781  97.6281 255.6471 0007983 349.7106  10.3944 14.83827573 55530
Epoch (UTC): 29 September 2022 21:55:28
Eccentricity: 0.0007983
inclination: 97.6281°
perigee height: 611 km
apogee height: 623 km
right ascension of ascending node: 255.6471°
argument of perigee: 349.7106°
revolutions per day: 14.83827573
mean anomaly at epoch: 10.3944°
orbit number at epoch: 5553

The dashed part of the orbit path shows where the satellite is in the earth's shadow,  

DLR